QPF
0.00 0.00 0.00 0.00 0.00 0.00 0.00 0.00 0.00 0.00 0.00 0.00 0.00 0.00 0.00 0.00 0.00 0.00 0.00 0.00 0.00 0.00 0.00 0.00 0.00 0.00 0.00 0.00 0.00 0.00 0.00 0.00 0.00 0.00 0.00 0.00 0.00 0.00 0.00 0.00 0.00 0.00 0.00 0.00 0.00 0.00 0.00 0.00 0.00 0.00 0.00 0.00 0.00 0.00 0.00 0.00 0.00 0.00 0.00 0.00 0.00 0.00 0.00
0.00 0.00 0.00 0.00 0.00 0.00 0.00 0.00 0.00 0.00 0.00 0.00 0.00 0.00 0.00 0.00 0.00 0.00 0.00 0.00 0.00 0.00 0.00 0.00 0.00 0.00 0.00 0.00 0.00 0.00 0.00 0.00 0.00 0.00 0.00 0.00 0.00 0.00 0.00 0.00 0.00 0.00 0.00 0.00 0.00 0.00 0.00 0.00 0.00 0.00 0.00 0.00 0.00 0.00 0.00 0.00 0.00 0.00 0.00 0.00 0.00 0.00 0.00
0.00 0.00 0.00 0.00 0.00 0.00 0.00 0.00 0.00 0.00 0.00 0.00 0.00 0.00 0.00 0.00 0.00 0.00 0.00 0.00 0.00 0.00 0.00 0.00 0.00 0.00 0.00 0.00 0.00 0.00 0.00 0.00 0.00 0.00 0.00 0.00 0.00 0.00 0.00 0.00 0.00 0.00 0.00 0.00 0.00 0.00 0.00 0.00 0.00 0.00 0.00 0.00 0.00 0.00 0.00 0.00 0.00 0.00 0.00 0.00 0.00 0.00 0.00
0.00 0.00 0.00 0.00 0.00 0.00 0.00 0.00 0.00 0.00 0.00 0.00 0.00 0.00 0.00 0.00 0.00 0.00 0.00 0.00 0.00 0.00 0.00 0.00 0.00 0.00 0.00 0.00 0.00 0.00 0.00 0.00 0.00 0.00 0.00 0.00 0.00 0.00 0.00 0.00 0.00 0.00 0.00 0.00 0.00 0.00 0.00 0.00 0.00 0.00 0.00 0.00 0.00 0.00 0.00 0.00 0.00 0.00 0.00 0.00 0.00 0.00 0.00
0.00 0.00 0.00 0.00 0.00 0.00 0.00 0.00 0.00 0.00 0.00 0.00 0.00 0.00 0.00 0.00 0.00 0.00 0.00 0.00 0.00 0.00 0.00 0.00 0.00 0.00 0.00 0.00 0.00 0.00 0.00 0.00 0.00 0.00 0.00 0.00 0.00 0.00 0.00 0.00 0.00 0.00 0.00 0.00 0.00 0.00 0.00 0.00 0.00 0.00 0.00 0.00 0.00 0.00 0.00 0.00 0.00 0.00 0.00 0.00 0.00 0.00 0.00
0.00 0.00 0.00 0.00 0.00 0.00 0.00 0.00 0.00 0.00 0.00 0.00 0.00 0.00 0.00 0.00 0.00 0.00 0.00 0.00 0.00 0.00 0.00 0.00 0.00 0.00 0.00 0.00 0.00 0.00 0.00 0.00 0.00 0.00 0.00 0.00 0.00 0.00 0.00 0.00 0.00 0.00 0.00 0.00 0.00 0.00 0.00 0.00 0.00 0.00 0.00 0.00 0.00 0.00 0.00 0.00 0.00 0.00 0.00 0.00 0.00 0.00 0.00
0.00 0.00 0.00 0.00 0.00 0.00 0.00 0.00 0.00 0.00 0.00 0.00 0.00 0.00 0.00 0.00 0.00 0.00 0.00 0.00 0.00 0.00 0.00 0.00 0.00 0.00 0.00 0.00 0.00 0.00 0.00 0.00 0.00 0.00 0.00 0.00 0.00 0.00 0.00 0.00 0.00 0.00 0.00 0.00 0.00 0.00 0.00 0.00 0.00 0.00 0.00 0.00 0.00 0.00 0.00 0.00 0.00 0.00 0.00 0.00 0.00 0.00 0.00
0.00 0.00 0.00 0.00 0.00 0.00 0.00 0.00 0.00 0.00 0.00 0.00 0.00 0.00 0.00 0.00 0.00 0.00 0.00 0.00 0.00 0.00 0.00 0.00 0.00 0.00 0.00 0.00 0.00 0.00 0.00 0.00 0.00 0.00 0.00 0.00 0.00 0.00 0.00 0.00 0.00 0.00 0.00 0.00 0.00 0.00 0.00 0.00 0.00 0.00 0.00 0.00 0.00 0.00 0.00 0.00 0.00 0.00 0.00 0.00 0.00 0.00 0.00
0.00 0.00 0.00 0.00 0.00 0.00 0.00 0.00 0.00 0.00 0.00 0.00 0.00 0.00 0.00 0.00 0.00 0.00 0.00 0.00 0.00 0.00 0.00 0.00 0.00 0.00 0.00 0.00 0.00 0.00 0.00 0.00 0.00 0.00 0.00 0.00 0.00 0.00 0.00 0.00 0.00 0.00 0.00 0.00 0.00 0.00 0.00 0.00 0.00 0.00 0.00 0.00 0.00 0.00 0.00 0.00 0.00 0.00 0.00 0.00 0.00 0.00 0.00
0.00 0.00 0.00 0.00 0.00 0.00 0.00 0.00 0.00 0.00 0.00 0.00 0.00 0.00 0.00 0.00 0.00 0.00 0.00 0.00 0.00 0.00 0.00 0.00 0.00 0.00 0.00 0.00 0.00 0.00 0.00 0.00 0.00 0.00 0.00 0.00 0.00 0.00 0.00 0.00 0.00 0.00 0.00 0.00 0.00 0.00 0.00 0.00 0.00 0.00 0.00 0.00 0.00 0.00 0.00 0.00 0.00 0.00 0.00 0.00 0.00 0.00 0.00
0.00 0.00 0.00 0.00 0.00 0.00 0.00 0.00 0.00 0.00 0.00 0.00 0.00 0.00 0.00 0.00 0.00 0.00 0.00 0.00 0.00 0.00 0.00 0.00 0.00 0.00 0.00 0.00 0.00 0.00 0.00 0.00 0.00 0.00 0.00 0.00 0.00 0.00 0.00 0.00 0.00 0.00 0.00 0.00 0.00 0.00 0.00 0.00 0.00 0.00 0.00 0.00 0.00 0.00 0.00 0.00 0.00 0.00 0.00 0.00 0.00 0.00 0.00
0.00 0.00 0.00 0.00 0.00 0.00 0.00 0.00 0.00 0.00 0.00 0.00 0.00 0.00 0.00 0.00 0.00 0.00 0.00 0.00 0.00 0.00 0.00 0.00 0.00 0.00 0.00 0.00 0.00 0.00 0.00 0.00 0.00 0.00 0.00 0.00 0.00 0.00 0.00 0.00 0.00 0.00 0.00 0.00 0.00 0.00 0.00 0.00 0.00 0.00 0.00 0.00 0.00 0.00 0.00 0.00 0.00 0.00 0.00 0.00 0.00 0.00 0.00
0.00 0.00 0.00 0.00 0.00 0.00 0.00 0.00 0.00 0.00 0.00 0.00 0.00 0.00 0.00 0.00 0.00 0.00 0.00 0.00 0.00 0.00 0.00 0.00 0.00 0.00 0.00 0.00 0.00 0.00 0.00 0.00 0.00 0.00 0.00 0.00 0.00 0.00 0.00 0.00 0.00 0.00 0.00 0.00 0.00 0.00 0.00 0.00 0.00 0.00 0.00 0.00 0.00 0.00 0.00 0.00 0.00 0.00 0.00 0.00 0.00 0.00 0.00
0.00 0.00 0.00 0.00 0.00 0.00 0.00 0.00 0.00 0.00 0.00 0.00 0.00 0.00 0.00 0.00 0.00 0.00 0.00 0.00 0.00 0.00 0.00 0.00 0.00 0.00 0.00 0.00 0.00 0.00 0.00 0.00 0.00 0.00 0.00 0.00 0.00 0.00 0.00 0.00 0.00 0.00 0.00 0.00 0.00 0.00 0.00 0.00 0.00 0.00 0.00 0.00 0.00 0.00 0.00 0.00 0.00 0.00 0.00 0.00 0.00 0.00 0.00
0.00 0.00 0.00 0.00 0.00 0.00 0.00 0.00 0.00 0.00 0.00 0.00 0.00 0.00 0.00 0.00 0.00 0.00 0.00 0.00 0.00 0.00 0.00 0.00 0.00 0.00 0.00 0.00 0.00 0.00 0.00 0.00 0.00 0.00 0.00 0.00 0.00 0.00 0.00 0.00 0.00 0.00 0.00 0.00 0.00 0.00 0.00 0.00 0.00 0.00 0.00 0.00 0.00 0.00 0.00 0.00 0.00 0.00 0.00 0.00 0.00 0.00 0.00
0.00 0.00 0.00 0.00 0.00 0.00 0.00 0.00 0.00 0.00 0.00 0.00 0.00 0.00 0.00 0.00 0.00 0.00 0.00 0.00 0.00 0.00 0.00 0.00 0.00 0.00 0.00 0.00 0.00 0.00 0.00 0.00 0.00 0.00 0.00 0.00 0.00 0.00 0.00 0.00 0.00 0.00 0.00 0.00 0.00 0.00 0.00 0.00 0.00 0.00 0.00 0.00 0.00 0.00 0.00 0.00 0.00 0.00 0.00 0.00 0.00 0.00 0.00
0.01 0.00 0.00 0.00 0.00 0.00 0.00 0.00 0.00 0.00 0.00 0.00 0.00 0.00 0.00 0.00 0.00 0.00 0.00 0.00 0.00 0.00 0.00 0.00 0.00 0.00 0.00 0.00 0.00 0.00 0.00 0.00 0.00 0.00 0.00 0.00 0.00 0.00 0.00 0.00 0.00 0.00 0.00 0.00 0.00 0.00 0.00 0.00 0.00 0.00 0.00 0.00 0.00 0.00 0.00 0.00 0.00 0.00 0.00 0.00 0.00 0.00 0.00
0.00 0.00 0.00 0.00 0.01 0.01 0.00 0.00 0.00 0.00 0.00 0.00 0.00 0.00 0.00 0.00 0.00 0.00 0.00 0.00 0.00 0.00 0.00 0.00 0.00 0.00 0.00 0.00 0.00 0.00 0.00 0.00 0.00 0.00 0.00 0.00 0.00 0.00 0.00 0.00 0.00 0.00 0.00 0.00 0.00 0.00 0.00 0.00 0.00 0.00 0.00 0.00 0.00 0.00 0.00 0.00 0.00 0.00 0.00 0.00 0.00 0.00 0.00
0.02 0.00 0.00 0.00 0.00 0.00 0.00 0.00 0.00 0.00 0.00 0.00 0.00 0.00 0.00 0.00 0.00 0.00 0.00 0.00 0.00 0.00 0.00 0.00 0.00 0.00 0.00 0.00 0.00 0.00 0.00 0.00 0.00 0.00 0.00 0.00 0.00 0.00 0.00 0.00 0.00 0.00 0.00 0.00 0.00 0.00 0.00 0.00 0.00 0.00 0.00 0.00 0.00 0.00 0.00 0.00 0.00 0.00 0.00 0.00 0.00 0.00 0.00
0.00 0.01 0.02 0.01 0.00 0.01 0.00 0.00 0.00 0.00 0.00 0.00 0.00 0.00 0.00 0.00 0.00 0.00 0.00 0.00 0.00 0.00 0.00 0.00 0.00 0.00 0.00 0.00 0.00 0.00 0.00 0.00 0.00 0.00 0.00 0.00 0.00 0.00 0.00 0.00 0.00 0.00 0.00 0.00 0.00 0.00 0.00 0.00 0.00 0.00 0.00 0.00 0.00 0.00 0.00 0.00 0.00 0.00 0.00 0.00 0.00 0.00 0.00
0.01 0.03 0.01 0.01 0.01 0.00 0.00 0.00 0.00 0.00 0.00 0.00 0.00 0.00 0.00 0.00 0.00 0.00 0.00 0.00 0.00 0.00 0.00 0.00 0.00 0.00 0.00 0.00 0.00 0.00 0.00 0.00 0.00 0.00 0.00 0.00 0.00 0.00 0.00 0.00 0.00 0.00 0.00 0.00 0.00 0.00 0.00 0.00 0.00 0.00 0.00 0.00 0.00 0.00 0.00 0.00 0.00 0.00 0.00 0.00 0.00 0.00 0.00
0.01 0.10 0.07 0.02 0.00 0.00 0.04 0.00 0.00 0.00 0.00 0.00 0.00 0.00 0.00 0.00 0.00 0.00 0.00 0.00 0.00 0.00 0.00 0.00 0.00 0.00 0.00 0.00 0.00 0.00 0.00 0.00 0.00 0.00 0.00 0.00 0.00 0.00 0.00 0.00 0.00 0.00 0.00 0.00 0.00 0.00 0.00 0.00 0.00 0.00 0.00 0.00 0.00 0.00 0.00 0.00 0.00 0.00 0.00 0.00 0.00 0.00 0.00
0.03 0.04 0.03 0.03 0.01 0.01 0.01 0.00 0.00 0.00 0.00 0.00 0.00 0.00 0.00 0.00 0.00 0.00 0.00 0.00 0.00 0.00 0.00 0.00 0.00 0.00 0.00 0.00 0.00 0.00 0.00 0.00 0.00 0.00 0.00 0.00 0.00 0.00 0.00 0.00 0.00 0.00 0.00 0.00 0.00 0.00 0.00 0.00 0.00 0.00 0.00 0.00 0.00 0.00 0.00 0.00 0.00 0.00 0.00 0.00 0.00 0.00 0.00
0.01 0.01 0.01 0.04 0.00 0.00 0.02 0.00 0.00 0.00 0.00 0.00 0.00 0.00 0.00 0.00 0.00 0.00 0.00 0.00 0.00 0.00 0.00 0.00 0.00 0.00 0.00 0.00 0.00 0.00 0.00 0.00 0.00 0.00 0.00 0.00 0.00 0.00 0.00 0.00 0.00 0.00 0.00 0.00 0.00 0.00 0.00 0.00 0.00 0.00 0.00 0.00 0.00 0.00 0.00 0.00 0.00 0.00 0.00 0.00 0.00 0.00 0.00
0.00 0.01 0.01 0.02 0.01 0.01 0.00 0.00 0.00 0.00 0.00 0.00 0.00 0.01 0.01 0.00 0.00 0.00 0.00 0.00 0.00 0.00 0.00 0.00 0.00 0.00 0.00 0.00 0.00 0.00 0.00 0.00 0.00 0.00 0.00 0.00 0.00 0.00 0.00 0.00 0.00 0.00 0.00 0.00 0.00 0.00 0.00 0.00 0.00 0.00 0.00 0.00 0.00 0.00 0.00 0.00 0.00 0.00 0.00 0.00 0.00 0.00 0.00
0.01 0.01 0.01 0.01 0.00 0.03 0.00 0.00 0.00 0.00 0.00 0.00 0.05 0.00 0.00 0.00 0.00 0.00 0.00 0.00 0.00 0.00 0.00 0.00 0.00 0.00 0.00 0.00 0.00 0.00 0.00 0.00 0.00 0.00 0.00 0.00 0.00 0.00 0.00 0.00 0.00 0.00 0.00 0.00 0.00 0.00 0.00 0.00 0.00 0.00 0.00 0.00 0.00 0.00 0.00 0.00 0.00 0.00 0.00 0.00 0.00 0.00 0.00
0.01 0.00 0.01 0.00 0.01 0.04 0.00 0.00 0.00 0.00 0.00 0.00 0.00 0.00 0.00 0.00 0.00 0.00 0.00 0.00 0.00 0.00 0.00 0.00 0.00 0.00 0.00 0.00 0.00 0.00 0.00 0.00 0.00 0.00 0.00 0.00 0.00 0.00 0.00 0.00 0.00 0.00 0.00 0.00 0.00 0.00 0.00 0.00 0.00 0.00 0.00 0.00 0.00 0.00 0.00 0.00 0.00 0.00 0.00 0.00 0.00 0.00 0.00
0.08 0.03 0.05 0.04 0.00 0.00 0.00 0.00 0.00 0.00 0.00 0.00 0.00 0.00 0.00 0.00 0.00 0.00 0.00 0.00 0.00 0.00 0.00 0.00 0.00 0.00 0.00 0.00 0.00 0.00 0.00 0.00 0.00 0.00 0.00 0.00 0.00 0.00 0.00 0.00 0.00 0.00 0.00 0.00 0.00 0.00 0.00 0.00 0.00 0.00 0.00 0.00 0.00 0.00 0.00 0.00 0.00 0.00 0.00 0.00 0.00 0.00 0.00
0.01 0.03 0.03 0.02 0.00 0.00 0.00 0.00 0.00 0.00 0.00 0.00 0.00 0.00 0.00 0.00 0.00 0.00 0.00 0.00 0.00 0.00 0.00 0.00 0.00 0.00 0.00 0.00 0.00 0.00 0.00 0.00 0.00 0.00 0.00 0.00 0.00 0.00 0.00 0.00 0.00 0.00 0.00 0.00 0.00 0.00 0.00 0.00 0.00 0.00 0.00 0.00 0.00 0.00 0.00 0.00 0.00 0.00 0.00 0.00 0.00 0.00 0.00
0.00 0.00 0.00 0.00 0.01 0.00 0.00 0.00 0.00 0.00 0.00 0.00 0.00 0.00 0.00 0.00 0.00 0.00 0.00 0.00 0.00 0.00 0.00 0.00 0.00 0.00 0.00 0.00 0.00 0.00 0.00 0.00 0.00 0.00 0.00 0.00 0.00 0.00 0.00 0.00 0.00 0.00 0.00 0.00 0.00 0.00 0.00 0.00 0.00 0.00 0.00 0.01 0.00 0.00 0.00 0.00 0.00 0.00 0.00 0.00 0.00 0.00 0.00
0.00 0.01 0.00 0.00 0.01 0.00 0.00 0.00 0.00 0.00 0.00 0.00 0.00 0.00 0.00 0.00 0.00 0.00 0.00 0.00 0.00 0.00 0.00 0.00 0.00 0.00 0.00 0.00 0.00 0.00 0.00 0.00 0.00 0.00 0.00 0.00 0.00 0.00 0.00 0.00 0.00 0.00 0.00 0.00 0.00 0.00 0.00 0.00 0.00 0.00 0.00 0.00 0.00 0.00 0.00 0.00 0.00 0.00 0.00 0.00 0.00 0.00 0.00
0.00 0.02 0.01 0.06 0.07 0.07 0.04 0.00 0.00 0.00 0.00 0.00 0.00 0.00 0.00 0.00 0.00 0.00 0.00 0.00 0.00 0.00 0.00 0.00 0.00 0.00 0.00 0.00 0.00 0.00 0.00 0.00 0.00 0.00 0.00 0.00 0.00 0.00 0.00 0.00 0.00 0.00 0.00 0.00 0.00 0.00 0.00 0.00 0.00 0.00 0.00 0.00 0.00 0.00 0.00 0.00 0.00 0.00 0.00 0.00 0.00 0.00 0.00
0.00 0.00 0.00 0.00 0.09 0.16 0.10 0.06 0.01 0.01 0.00 0.00 0.00 0.00 0.00 0.00 0.00 0.00 0.00 0.00 0.00 0.00 0.00 0.00 0.00 0.00 0.00 0.00 0.00 0.00 0.00 0.00 0.00 0.00 0.00 0.00 0.00 0.00 0.00 0.00 0.00 0.00 0.00 0.00 0.00 0.00 0.00 0.00 0.00 0.00 0.00 0.00 0.00 0.00 0.00 0.00 0.00 0.00 0.00 0.00 0.00 0.00 0.00
0.00 0.02 0.00 0.00 0.02 0.11 0.14 0.09 0.20 0.05 0.00 0.00 0.00 0.00 0.00 0.00 0.00 0.00 0.00 0.00 0.00 0.00 0.00 0.00 0.00 0.00 0.00 0.00 0.00 0.00 0.00 0.00 0.00 0.00 0.00 0.00 0.00 0.00 0.00 0.00 0.00 0.00 0.00 0.00 0.00 0.00 0.00 0.00 0.00 0.00 0.00 0.00 0.00 0.00 0.00 0.00 0.00 0.00 0.00 0.00 0.00 0.00 0.00
0.00 0.00 0.01 0.00 0.00 0.01 0.03 0.11 0.32 0.09 0.02 0.00 0.00 0.01 0.00 0.02 0.01 0.00 0.00 0.00 0.00 0.00 0.00 0.00 0.00 0.00 0.00 0.00 0.00 0.00 0.00 0.00 0.00 0.00 0.00 0.00 0.00 0.00 0.00 0.00 0.00 0.00 0.00 0.00 0.00 0.00 0.00 0.00 0.00 0.00 0.00 0.00 0.00 0.00 0.00 0.00 0.00 0.00 0.00 0.00 0.00 0.00 0.00
0.01 0.00 0.00 0.00 0.00 0.00 0.02 0.03 0.13 0.40 0.22 0.00 0.01 0.00 0.00 0.00 0.00 0.00 0.00 0.00 0.00 0.00 0.00 0.00 0.00 0.00 0.00 0.00 0.00 0.00 0.00 0.00 0.00 0.00 0.00 0.00 0.00 0.00 0.00 0.00 0.00 0.00 0.00 0.00 0.00 0.00 0.00 0.00 0.00 0.00 0.00 0.00 0.00 0.00 0.00 0.00 0.00 0.00 0.00 0.00 0.00 0.00 0.00
0.00 0.00 0.00 0.00 0.00 0.00 0.00 0.01 0.03 0.07 0.10 0.38 0.03 0.07 0.04 0.02 0.01 0.00 0.00 0.01 0.00 0.00 0.00 0.00 0.00 0.00 0.00 0.00 0.00 0.00 0.00 0.00 0.00 0.00 0.00 0.00 0.00 0.01 0.00 0.00 0.01 0.00 0.00 0.00 0.00 0.00 0.00 0.00 0.00 0.00 0.00 0.00 0.00 0.00 0.00 0.00 0.00 0.00 0.00 0.00 0.00 0.00 0.00
MSLP
1002.83 1003.27 1002.95 1003.43 1002.79 1009.19 1005.27 1005.83 1007.59 1005.87 1003.55 1005.31 1007.71 1008.23 1006.79 1007.15 1008.95 1009.91 1006.39 1008.87 1006.91 1003.87 1003.59 1003.07 1002.55 1002.63 1002.39 1001.75 1001.55 1001.43 1001.55 1001.59 1002.19 1002.63 1002.39 1002.31 1002.31 1002.47 1002.79 1003.15 1003.43 1003.71 1003.99 1004.39 1004.67 1005.11 1005.51 1005.91 1006.27 1006.59 1006.87 1007.07 1007.43 1007.91 1008.43 1008.91 1009.15 1009.35 1009.59 1009.79 1010.03 1010.19 1010.51
1002.19 1001.47 1001.91 1002.47 1002.35 1002.27 1004.03 1007.31 1005.11 1002.91 1001.71 1003.19 1006.31 1009.95 1009.67 1010.99 1011.91 1009.87 1006.83 1009.03 1008.71 1008.27 1009.51 1002.95 1002.99 1003.31 1002.71 1002.19 1001.47 1000.75 1000.71 1001.31 1002.35 1002.11 1001.95 1001.87 1001.95 1001.95 1001.99 1002.23 1002.47 1002.79 1003.07 1003.55 1003.87 1004.15 1004.51 1004.95 1005.39 1005.91 1006.31 1006.43 1006.79 1007.23 1007.71 1008.39 1008.83 1009.15 1009.15 1009.31 1009.59 1009.79 1010.19
1002.27 1001.55 1002.11 1003.39 1002.03 1001.31 1003.35 1003.83 1000.83 1005.55 1009.43 1010.71 1006.43 1008.07 1011.59 1011.91 1012.47 1010.75 1007.83 1006.79 1006.95 1006.87 1006.71 1004.19 1004.07 1003.87 1003.03 1002.15 1001.31 1000.91 1000.75 1001.27 1001.67 1001.47 1001.43 1001.35 1001.39 1001.59 1001.91 1002.19 1002.59 1002.79 1002.95 1003.15 1003.39 1003.55 1003.71 1004.15 1004.59 1005.03 1005.47 1005.91 1006.39 1006.79 1007.03 1007.43 1007.99 1008.11 1008.39 1008.63 1008.95 1009.23 1009.55
1002.07 1002.51 1003.11 1006.59 1004.83 1002.19 1001.79 1001.39 1003.07 1001.95 1004.47 1006.51 1008.71 1007.63 1007.47 1007.99 1010.91 1011.07 1009.43 1007.55 1008.23 1005.11 1004.19 1002.99 1003.19 1002.55 1001.91 1001.47 1001.11 1000.75 1000.39 1000.35 1000.71 1000.67 1000.75 1001.15 1001.43 1001.39 1001.43 1001.59 1001.71 1001.91 1002.03 1002.23 1002.55 1002.95 1003.35 1003.75 1004.35 1004.63 1005.03 1005.43 1005.91 1006.23 1006.71 1007.03 1007.23 1007.55 1007.91 1008.27 1008.47 1008.95 1009.07
1002.03 1005.39 1003.39 1004.27 1003.39 1004.87 1004.87 1004.71 1005.75 1003.95 1003.95 1002.35 1003.91 1004.35 1006.59 1008.47 1009.47 1009.39 1009.87 1009.67 1006.43 1003.19 1001.55 1001.75 1002.03 1001.55 1001.63 1001.47 1001.47 1000.79 1000.23 999.55 999.35 999.71 999.91 1000.27 1000.63 1000.83 1000.83 1000.87 1001.07 1001.35 1001.55 1001.71 1001.95 1002.19 1002.47 1002.87 1003.43 1003.95 1004.35 1004.87 1005.11 1005.51 1006.11 1006.43 1007.03 1007.27 1007.51 1007.63 1007.91 1008.31 1008.55
1004.23 1003.03 1001.39 1001.63 1001.71 1001.67 1002.63 1004.55 1005.47 1004.31 1005.75 1007.03 1008.71 1008.79 1004.03 1005.31 1007.51 1008.91 1009.15 1008.83 1005.39 1000.83 999.35 1000.03 1000.99 1000.55 1000.59 1000.23 1000.39 1000.31 999.59 998.99 998.59 998.75 999.23 999.55 1000.27 1000.31 1000.39 1000.43 1000.47 1000.75 1001.03 1001.31 1001.51 1001.87 1002.15 1002.67 1003.15 1003.67 1003.83 1004.27 1004.79 1005.15 1005.39 1005.83 1006.11 1006.51 1006.75 1007.11 1007.47 1007.79 1008.07
1003.67 1002.11 1000.15 999.83 1000.03 1000.19 1000.71 1001.75 1003.47 1002.79 1003.03 1004.27 1006.23 1009.55 1007.15 1005.35 1004.55 1004.47 1004.87 1007.23 1005.71 999.55 998.55 999.55 1000.07 999.95 999.51 999.47 999.35 999.47 998.91 998.59 998.51 998.87 998.71 999.07 999.47 999.79 999.83 999.91 999.99 1000.15 1000.55 1000.87 1001.23 1001.71 1002.15 1002.39 1002.71 1003.15 1003.55 1003.87 1004.23 1004.59 1004.91 1005.19 1005.59 1005.79 1005.83 1006.27 1006.71 1007.15 1007.71
1000.99 1000.27 999.63 999.35 999.87 1000.51 1001.55 1000.83 1000.55 1001.79 1003.35 1002.83 1003.87 1004.67 1004.43 1005.43 1005.07 1006.91 1006.19 1007.67 1004.87 999.79 998.23 998.51 999.27 999.35 998.91 998.51 998.79 999.43 999.07 998.23 998.35 998.71 998.87 999.23 999.75 999.75 999.59 999.43 999.47 999.75 1000.15 1000.63 1001.15 1001.83 1002.27 1002.51 1002.83 1003.07 1003.23 1003.51 1003.79 1004.07 1004.31 1004.59 1005.03 1005.15 1005.39 1005.71 1006.15 1006.75 1007.27
1004.95 1003.47 1001.59 1001.31 1000.31 1000.87 1001.75 1001.83 1000.71 1000.47 1000.83 1001.19 1001.47 1002.03 1002.23 1005.43 1003.95 1004.71 1006.43 1008.31 1005.63 1000.87 998.99 999.51 999.31 998.87 998.91 998.83 998.47 998.55 999.43 998.75 998.27 998.63 999.03 999.19 999.67 999.91 999.91 999.79 999.75 999.91 1000.23 1000.79 1001.19 1001.51 1001.99 1002.35 1002.55 1002.83 1003.15 1003.39 1003.59 1003.87 1003.91 1004.11 1004.27 1004.43 1004.87 1005.11 1005.55 1006.15 1006.71
1008.91 1008.91 1007.47 1006.47 1005.27 1003.31 1001.75 1001.03 1000.75 1000.31 1001.15 1001.63 1002.87 1004.99 1004.27 1005.79 1004.11 1003.71 1004.87 1004.83 1002.71 999.63 999.39 999.75 999.71 999.39 999.27 998.55 998.07 997.47 997.75 998.59 998.59 998.71 999.23 999.59 999.87 1000.19 1000.15 1000.07 1000.03 1000.23 1000.35 1000.71 1001.11 1001.43 1001.79 1002.07 1002.31 1002.67 1002.95 1003.11 1003.27 1003.47 1003.59 1003.43 1003.79 1004.11 1004.47 1004.67 1005.07 1005.63 1006.15
1004.07 1003.31 1002.43 1000.87 1000.67 1001.83 1003.63 1002.23 1001.75 1001.19 1000.51 1000.59 1001.15 1002.15 1003.95 1004.99 1004.75 1005.11 1003.31 1003.35 1002.63 1001.43 1000.39 1000.31 999.83 999.51 999.67 999.39 998.63 998.63 998.55 998.19 997.99 998.67 999.03 999.31 999.71 1000.03 1000.07 1000.15 1000.11 1000.31 1000.71 1000.91 1000.99 1001.23 1001.47 1001.71 1001.99 1002.31 1002.63 1002.87 1002.99 1003.27 1003.43 1003.27 1003.31 1003.75 1004.11 1004.47 1004.87 1005.27 1005.71
1001.31 1000.23 1000.71 999.79 1000.19 1001.71 1001.51 1002.15 1001.79 1000.99 1000.87 1000.83 1001.51 1002.47 1003.67 1001.75 1003.55 1005.55 1002.99 1002.27 1002.99 1002.35 999.99 999.59 999.91 999.27 999.07 998.67 998.27 998.03 997.75 997.87 997.87 997.91 998.95 999.07 999.43 999.55 999.75 1000.03 1000.19 1000.35 1000.43 1000.67 1000.99 1001.15 1001.35 1001.59 1001.75 1002.03 1002.15 1002.35 1002.63 1002.91 1003.19 1003.15 1003.19 1003.51 1003.83 1004.31 1004.79 1005.19 1005.55
1001.11 1000.31 999.87 999.39 999.75 1000.35 1000.55 1000.51 1000.87 1001.39 1001.19 1001.23 1002.31 1002.15 1001.31 1001.47 1003.27 1004.35 1002.39 1001.91 1003.03 1001.79 1000.27 998.87 998.59 998.59 998.71 998.39 997.99 997.51 996.91 996.55 997.07 998.03 998.67 998.95 999.11 999.35 999.67 999.79 999.99 1000.31 1000.43 1000.39 1000.63 1000.87 1001.07 1001.27 1001.63 1001.83 1001.99 1002.15 1002.31 1002.59 1002.75 1002.99 1003.11 1003.39 1003.63 1004.23 1004.71 1005.11 1005.47
1000.79 1000.23 999.87 999.39 999.75 999.71 1000.15 1000.23 1000.07 1000.03 1000.23 1000.59 1000.87 1001.11 1000.67 1001.03 1001.75 1001.31 1001.43 1001.39 1001.51 1000.43 999.67 998.87 997.79 997.11 997.31 997.19 996.87 996.55 996.91 997.47 997.67 997.87 998.47 998.55 998.59 998.83 999.11 999.19 999.19 999.63 999.83 1000.07 1000.31 1000.55 1000.83 1001.03 1001.31 1001.51 1001.71 1001.95 1002.07 1002.43 1002.67 1002.79 1003.11 1003.15 1003.51 1004.11 1004.59 1004.95 1005.35
1001.35 999.83 999.19 998.95 999.11 999.31 999.91 999.39 999.27 999.19 999.19 999.39 999.39 999.91 999.95 1000.27 1000.63 1000.59 1000.83 1001.35 1001.51 998.83 997.83 997.83 997.03 996.67 996.67 996.63 996.99 997.19 997.03 997.03 997.03 997.63 997.95 998.07 998.11 997.99 998.19 998.47 998.59 998.99 999.51 999.71 1000.03 1000.35 1000.51 1000.63 1000.83 1001.03 1001.23 1001.43 1001.71 1001.95 1002.31 1002.59 1002.99 1002.99 1003.31 1004.07 1004.47 1004.83 1005.19
1001.91 999.91 999.79 999.43 999.39 999.31 999.39 999.43 999.19 999.31 999.51 1000.23 999.31 999.67 998.83 999.99 1000.95 1000.71 1000.91 1001.55 1001.23 998.87 997.47 997.19 997.11 997.07 997.19 997.27 997.23 997.35 997.15 996.55 996.63 997.39 997.43 997.51 997.63 997.55 997.59 997.75 998.03 998.63 999.07 999.39 999.59 999.79 999.95 1000.11 1000.35 1000.59 1000.95 1001.19 1001.55 1001.87 1002.03 1002.35 1002.47 1002.63 1003.19 1003.71 1004.27 1004.63 1004.79
1002.55 999.71 999.03 999.39 999.39 1000.39 1001.43 1000.59 999.27 998.63 998.39 998.23 997.91 997.43 997.23 997.63 998.27 1000.15 1001.23 1000.31 998.27 997.87 996.95 997.39 997.31 997.03 996.83 996.91 996.91 996.95 996.43 996.43 996.35 996.71 996.91 996.83 996.91 997.03 997.11 997.43 997.67 997.91 998.23 998.43 998.71 999.03 999.31 999.55 999.83 999.95 1000.23 1000.79 1001.31 1001.39 1001.75 1001.91 1002.11 1002.59 1003.15 1003.51 1003.95 1004.35 1004.55
1002.67 1000.51 999.71 999.47 1001.47 1003.83 1002.27 997.39 996.27 996.87 998.07 998.07 998.95 998.59 997.63 996.63 996.79 997.51 996.87 997.03 996.55 996.51 996.67 997.31 997.47 996.91 996.43 996.15 995.87 995.31 995.75 996.19 996.51 996.27 996.27 996.39 996.39 996.51 996.63 996.79 997.11 997.51 997.79 998.03 998.31 998.51 998.71 998.87 999.07 999.35 999.67 1000.31 1000.71 1000.91 1001.31 1001.67 1002.19 1002.55 1002.99 1003.39 1003.67 1004.07 1004.31
1003.35 1000.71 1000.83 1003.39 1005.27 1003.31 997.91 995.27 994.99 995.11 995.79 996.31 997.07 996.99 996.55 996.15 995.71 995.99 996.55 996.51 996.55 995.95 995.91 995.91 995.67 995.39 995.15 994.95 995.07 994.95 994.67 995.23 995.59 996.15 996.11 996.39 996.43 996.51 996.63 996.83 996.79 997.23 997.47 997.71 998.03 998.39 998.55 998.63 998.95 999.35 999.87 1000.03 1000.47 1000.99 1001.27 1001.83 1002.07 1002.47 1002.79 1003.19 1003.59 1003.79 1004.11
1001.79 1002.55 1003.27 1006.19 1003.87 998.75 996.79 996.59 996.59 995.99 995.79 995.59 996.55 997.31 996.27 995.75 995.67 995.79 996.59 996.31 995.91 995.67 995.51 994.91 994.51 994.83 994.55 994.63 994.99 995.27 994.75 994.75 995.15 995.47 995.71 995.75 995.91 996.23 996.15 996.71 996.75 997.03 997.19 997.47 997.67 998.03 997.99 998.43 998.83 999.15 999.63 999.63 1000.19 1000.87 1000.99 1001.59 1001.99 1002.31 1002.67 1003.11 1003.43 1003.63 1003.99
1004.43 1003.31 1003.63 1003.07 999.55 999.55 998.75 998.27 998.31 997.91 998.83 997.87 997.83 999.31 997.03 995.07 994.87 994.99 995.51 995.47 995.23 995.07 994.79 994.51 994.27 994.55 995.11 996.19 995.71 994.47 994.59 994.79 994.47 994.43 994.55 994.55 995.07 995.27 995.59 995.79 996.27 996.51 996.67 997.23 997.47 997.75 997.99 998.19 998.59 998.99 999.11 999.47 1000.07 1000.67 1001.19 1001.47 1001.87 1002.31 1002.63 1003.11 1003.39 1003.63 1003.95
1002.43 1005.59 1006.79 1003.91 1002.43 1003.67 1001.71 1000.71 998.55 997.75 997.95 997.79 997.95 998.83 998.43 994.75 993.95 993.71 994.43 994.99 995.07 994.99 994.55 994.27 994.67 995.71 996.95 997.95 996.23 994.03 993.67 993.99 994.55 994.15 994.03 993.83 994.15 994.51 994.91 995.15 995.79 996.15 996.19 996.51 997.07 997.55 998.03 998.15 998.31 998.55 998.91 999.43 1000.07 1000.75 1001.23 1001.55 1002.03 1002.43 1002.71 1003.07 1003.19 1003.55 1003.87
1002.75 1003.91 1005.75 1005.43 1003.63 1002.19 1000.23 999.55 999.03 998.19 997.83 997.95 997.75 999.39 1000.03 995.43 993.91 993.15 993.35 994.07 994.27 994.47 994.63 994.55 995.75 996.75 998.51 997.43 995.35 992.99 993.03 993.59 993.67 994.27 994.23 993.91 993.95 994.27 994.71 995.27 995.91 995.95 996.03 996.27 996.83 997.39 997.91 998.51 998.47 998.55 998.95 999.51 1000.19 1000.91 1001.27 1001.67 1001.95 1002.35 1002.67 1002.87 1003.11 1003.55 1003.71
1002.03 1002.91 1003.91 1004.35 1001.59 1001.39 1000.83 999.11 998.79 998.19 997.51 998.07 999.11 1002.75 1000.19 995.31 994.31 992.87 992.71 993.27 993.43 993.63 993.51 994.35 995.75 996.55 997.83 996.43 993.79 992.83 993.15 993.31 993.39 993.91 994.39 994.39 994.47 994.59 994.59 994.71 995.27 995.87 995.91 996.39 997.15 997.83 998.31 998.55 998.27 998.55 998.91 999.43 1000.19 1000.83 1001.35 1001.51 1001.91 1002.23 1002.43 1002.67 1002.83 1003.07 1003.39
1001.59 1002.43 1002.27 1001.79 1000.99 999.43 999.43 998.87 998.31 997.75 997.39 998.51 1001.67 1002.51 998.23 997.47 996.39 995.63 994.71 993.35 992.51 992.59 993.35 994.11 995.79 994.75 994.35 994.67 994.03 993.43 993.39 993.87 994.31 994.19 994.27 994.59 994.55 994.67 994.71 995.31 995.75 996.15 996.27 996.55 997.11 997.55 998.03 998.11 998.19 998.43 998.83 999.63 1000.47 1000.95 1001.23 1001.51 1001.79 1001.87 1002.03 1002.27 1002.63 1003.03 1003.39
1001.31 1000.95 1002.47 1001.67 1000.43 1000.39 999.43 998.11 997.79 997.35 999.07 1002.27 1000.91 998.47 998.03 997.11 996.63 995.39 995.23 995.19 993.71 993.15 993.47 993.87 993.75 994.27 994.11 993.91 993.91 994.23 994.23 994.47 994.67 994.67 994.87 994.95 994.99 994.91 995.27 995.87 996.15 996.27 996.43 997.03 997.51 997.87 997.91 997.99 998.19 998.55 999.07 999.99 1000.59 1001.03 1001.23 1001.55 1001.59 1001.59 1001.95 1002.31 1002.59 1002.99 1003.51
999.83 1000.51 1001.55 1002.43 1003.51 1000.31 998.35 998.43 998.11 998.59 1001.11 999.35 999.51 998.35 997.07 996.39 996.03 995.67 995.19 994.91 994.59 994.15 994.19 993.59 993.99 994.11 993.99 994.15 994.47 994.67 994.91 995.07 995.23 995.27 995.43 995.63 995.71 995.87 996.07 996.39 996.47 996.59 997.19 997.63 997.91 997.99 997.95 998.15 998.51 998.87 999.43 1000.31 1000.79 1000.99 1001.43 1001.71 1001.55 1001.83 1002.03 1002.27 1002.59 1002.99 1003.47
1000.95 1001.23 1002.31 1001.47 998.67 998.87 997.63 998.31 1000.67 999.83 1000.07 998.95 998.35 998.15 997.55 996.31 995.95 995.67 995.51 995.11 994.55 994.15 994.39 994.51 994.39 994.43 994.87 995.03 994.99 995.07 995.27 995.39 995.51 995.67 995.71 995.59 995.59 995.63 995.71 996.07 996.63 996.95 997.59 997.87 998.15 998.31 998.47 998.75 998.95 999.23 999.83 1000.59 1000.91 1001.31 1001.83 1001.59 1001.67 1001.87 1002.19 1002.43 1002.67 1003.07 1003.47
998.75 999.23 998.55 998.87 998.31 997.83 997.39 997.91 999.15 999.15 998.63 998.23 997.83 997.51 997.39 996.75 996.31 995.39 995.43 995.51 994.79 994.43 994.55 994.71 994.75 995.03 994.75 994.99 994.91 995.27 995.39 995.47 995.67 995.91 996.07 996.11 996.23 996.39 996.67 996.99 997.11 997.35 997.99 998.71 998.99 999.31 999.43 999.51 999.55 999.71 999.99 1000.63 1001.07 1001.59 1001.63 1001.55 1001.91 1002.19 1002.47 1002.63 1002.87 1003.31 1003.55
998.71 998.75 998.83 998.71 998.67 998.39 997.67 997.35 997.87 998.51 998.59 997.99 997.87 997.67 997.39 997.03 996.39 995.63 995.63 995.19 994.99 994.83 994.51 994.87 994.95 994.83 994.75 994.83 995.15 995.35 995.67 996.03 996.27 996.27 996.39 996.55 996.63 996.83 997.15 997.63 997.83 997.95 998.19 998.51 999.03 999.71 999.99 999.87 999.91 999.91 1000.07 1000.51 1001.23 1001.59 1001.43 1001.67 1001.95 1002.27 1002.47 1002.75 1003.07 1003.31 1003.55
999.51 1001.15 999.51 999.43 999.79 999.11 998.03 997.83 997.95 998.31 998.75 998.67 998.11 998.19 997.67 997.11 996.35 995.75 995.27 995.47 995.75 995.75 995.67 995.67 995.19 994.91 994.87 995.35 995.67 995.79 996.03 996.27 996.51 996.75 997.15 997.43 997.59 997.87 998.19 998.15 998.03 998.11 998.15 998.51 999.03 999.39 999.87 999.75 999.75 999.91 1000.19 1000.43 1000.87 1001.19 1001.55 1001.63 1001.91 1002.15 1002.47 1002.75 1003.07 1003.31 1003.67
999.59 1000.59 1000.75 1000.51 1000.07 999.59 998.71 998.27 999.35 999.87 999.71 999.07 998.23 997.83 997.51 997.03 996.35 995.59 995.67 995.43 995.75 995.87 996.43 996.03 995.39 995.23 995.35 995.83 996.27 996.43 996.67 996.91 997.03 997.23 997.47 997.79 998.07 998.19 998.23 998.31 998.19 998.35 998.71 999.11 999.47 999.63 999.91 999.83 999.99 1000.19 1000.39 1000.67 1000.91 1001.03 1001.15 1001.31 1001.75 1002.15 1002.55 1002.83 1003.11 1003.39 1003.67
1000.15 1000.19 1000.31 1000.39 999.95 999.99 999.75 999.43 1000.51 1000.91 1000.39 999.63 999.07 998.39 997.79 997.15 996.87 996.31 996.03 996.51 996.99 996.87 996.79 996.35 996.27 996.35 996.43 996.39 996.59 996.99 997.39 997.51 997.59 997.75 997.91 998.03 998.23 998.35 998.59 998.79 998.75 999.03 999.27 999.59 999.75 999.87 1000.07 999.95 1000.15 1000.39 1000.51 1000.55 1000.75 1001.15 1001.23 1001.43 1001.83 1002.23 1002.67 1002.91 1002.99 1003.27 1003.67
1000.43 1000.51 1000.83 1000.03 1001.03 1002.03 1001.55 1001.23 1002.11 1002.19 1001.03 1000.07 999.91 999.19 998.75 998.35 997.99 997.39 997.35 997.91 998.03 998.07 997.87 997.51 997.39 997.67 997.75 997.63 997.51 997.83 998.23 998.43 998.23 998.03 998.03 998.23 998.47 998.75 998.83 998.99 999.27 999.55 999.71 999.87 1000.19 1000.43 1000.59 1000.47 1000.59 1000.79 1000.91 1000.91 1000.83 1000.87 1001.23 1001.59 1001.91 1002.43 1002.79 1002.91 1002.91 1003.19 1003.63
1000.99 1001.03 1000.15 1000.95 1001.19 1001.67 1002.23 1002.27 1002.67 1002.35 1001.39 1000.71 1000.35 1000.35 1000.15 999.87 999.35 998.67 998.55 999.07 999.31 999.31 999.11 998.55 998.47 998.67 998.63 998.59 998.23 998.43 998.83 999.07 998.83 998.63 998.59 998.75 998.91 999.07 999.07 999.43 999.71 999.99 1000.19 1000.31 1000.47 1000.79 1000.91 1000.87 1000.95 1000.99 1001.15 1001.15 1001.19 1001.27 1001.51 1001.71 1002.03 1002.39 1002.63 1002.91 1002.99 1003.03 1003.35
1001.03 1000.51 1000.07 1000.15 1000.91 1002.23 1002.87 1002.87 1002.95 1002.87 1001.95 1001.31 1001.03 1000.59 1000.43 1000.51 1000.63 1000.27 999.75 999.63 1000.03 1000.31 1000.07 999.71 999.19 999.15 999.23 999.19 999.15 999.51 999.47 999.31 999.35 999.31 999.19 999.03 999.03 999.03 999.11 999.55 999.91 1000.15 1000.35 1000.51 1000.71 1000.99 1000.99 1000.95 1001.11 1001.23 1001.35 1001.43 1001.55 1001.59 1001.75 1001.87 1002.03 1002.39 1002.71 1002.99 1003.11 1003.11 1003.23
1000.99 1000.87 1000.39 1000.59 1001.31 1002.03 1002.19 1002.47 1002.87 1003.15 1002.59 1002.19 1002.15 1001.87 1001.63 1001.31 1001.11 1000.87 1000.91 1000.83 1000.67 1000.67 1000.75 1000.75 1000.43 999.95 999.75 999.83 999.91 1000.15 1000.19 1000.07 999.99 999.95 999.87 999.91 999.87 999.83 999.83 1000.07 1000.43 1000.63 1000.79 1000.75 1000.71 1000.71 1000.83 1001.07 1001.27 1001.35 1001.47 1001.59 1001.55 1001.63 1001.79 1001.99 1002.19 1002.59 1002.95 1002.87 1002.79 1002.99 1003.27
Thickness
5815 5809 5813 5823 5811 5800 5807 5809 5798 5810 5833 5825 5800 5792 5807 5805 5782 5793 5806 5796 5814 5836 5841 5862 5869 5863 5871 5875 5879 5885 5883 5884 5880 5876 5881 5882 5881 5882 5879 5876 5873 5871 5868 5863 5861 5857 5854 5851 5848 5846 5844 5841 5839 5835 5831 5827 5824 5824 5822 5821 5820 5819 5817
5809 5820 5817 5818 5822 5819 5807 5796 5808 5829 5829 5821 5812 5791 5786 5781 5765 5789 5812 5799 5803 5809 5816 5851 5865 5855 5863 5872 5878 5885 5886 5883 5878 5880 5884 5884 5886 5885 5881 5881 5877 5874 5873 5868 5866 5863 5860 5858 5853 5850 5848 5845 5842 5838 5834 5829 5825 5824 5824 5823 5822 5820 5817
5801 5818 5806 5797 5813 5826 5819 5816 5830 5823 5791 5786 5797 5784 5774 5770 5760 5776 5802 5806 5808 5807 5818 5846 5853 5852 5863 5871 5878 5884 5885 5883 5880 5883 5886 5885 5887 5885 5882 5882 5878 5876 5876 5872 5870 5868 5865 5862 5858 5854 5851 5847 5844 5840 5837 5833 5830 5828 5827 5825 5823 5821 5819
5797 5799 5789 5780 5791 5810 5818 5817 5821 5818 5802 5792 5793 5789 5785 5778 5767 5772 5786 5796 5806 5819 5838 5850 5851 5858 5866 5867 5874 5880 5883 5887 5885 5887 5889 5887 5886 5885 5885 5884 5881 5881 5880 5877 5876 5872 5870 5866 5861 5858 5854 5849 5846 5842 5839 5836 5833 5831 5829 5827 5825 5822 5821
5786 5779 5783 5788 5792 5797 5797 5789 5789 5800 5806 5804 5800 5800 5801 5791 5777 5775 5777 5782 5806 5838 5856 5858 5858 5865 5868 5869 5873 5877 5884 5891 5892 5893 5893 5890 5889 5887 5888 5888 5886 5884 5882 5881 5879 5876 5874 5870 5864 5861 5857 5853 5850 5846 5842 5839 5835 5833 5831 5830 5828 5825 5824
5770 5778 5798 5807 5806 5806 5798 5788 5787 5793 5796 5794 5782 5778 5795 5803 5791 5788 5785 5777 5807 5855 5868 5862 5865 5869 5872 5877 5877 5879 5887 5893 5895 5896 5896 5893 5891 5889 5890 5890 5888 5887 5884 5882 5880 5877 5874 5871 5866 5863 5859 5856 5851 5848 5846 5843 5839 5838 5835 5833 5830 5828 5826
5775 5791 5809 5811 5809 5814 5811 5803 5803 5803 5800 5795 5776 5763 5783 5802 5797 5804 5803 5782 5806 5862 5876 5864 5865 5871 5876 5881 5881 5882 5888 5894 5894 5893 5896 5896 5891 5891 5892 5891 5890 5889 5886 5882 5880 5876 5872 5870 5868 5863 5860 5858 5854 5851 5849 5846 5843 5842 5841 5838 5834 5831 5828
5782 5795 5808 5809 5809 5807 5800 5802 5810 5808 5803 5804 5799 5792 5797 5799 5792 5797 5793 5775 5800 5855 5872 5866 5867 5873 5878 5882 5882 5881 5883 5890 5893 5891 5893 5893 5888 5889 5890 5890 5891 5890 5886 5883 5878 5874 5871 5868 5866 5863 5861 5859 5856 5854 5852 5849 5847 5846 5844 5841 5838 5833 5829
5746 5760 5773 5779 5786 5790 5789 5796 5806 5808 5809 5810 5808 5807 5804 5794 5792 5798 5786 5772 5801 5847 5862 5861 5864 5870 5876 5880 5884 5883 5881 5885 5890 5889 5889 5887 5884 5884 5885 5886 5887 5886 5884 5881 5876 5873 5870 5866 5865 5863 5860 5859 5856 5855 5854 5853 5852 5849 5847 5844 5841 5837 5831
5722 5731 5744 5756 5769 5780 5785 5792 5800 5804 5808 5807 5800 5797 5788 5777 5784 5798 5789 5783 5813 5846 5852 5851 5857 5863 5868 5874 5881 5884 5884 5884 5887 5886 5883 5882 5881 5879 5879 5881 5882 5882 5881 5877 5874 5873 5869 5866 5864 5862 5859 5858 5857 5856 5855 5856 5855 5851 5848 5846 5843 5839 5833
5747 5751 5763 5777 5782 5777 5775 5781 5790 5795 5800 5805 5802 5789 5779 5779 5782 5783 5789 5798 5813 5832 5842 5843 5851 5858 5861 5867 5875 5878 5881 5883 5885 5884 5880 5880 5879 5877 5878 5878 5877 5878 5877 5873 5872 5871 5868 5867 5865 5862 5860 5858 5857 5856 5855 5856 5856 5852 5849 5846 5842 5839 5835
5765 5772 5780 5789 5787 5778 5777 5780 5785 5789 5793 5798 5795 5784 5785 5795 5781 5768 5789 5806 5801 5813 5839 5844 5846 5853 5859 5865 5871 5875 5879 5884 5886 5884 5879 5877 5877 5876 5876 5875 5874 5875 5874 5871 5871 5869 5867 5867 5864 5862 5860 5859 5858 5856 5854 5855 5854 5851 5849 5845 5841 5837 5833
5764 5774 5780 5788 5786 5781 5783 5784 5783 5786 5787 5787 5785 5785 5794 5799 5781 5773 5794 5803 5794 5809 5835 5845 5850 5857 5860 5865 5873 5878 5882 5883 5884 5880 5876 5875 5876 5875 5874 5874 5874 5873 5872 5872 5871 5868 5867 5865 5862 5862 5860 5858 5858 5856 5854 5854 5852 5850 5848 5843 5839 5835 5831
5760 5770 5775 5785 5786 5782 5782 5784 5786 5788 5789 5788 5787 5789 5798 5799 5791 5793 5801 5798 5798 5816 5833 5845 5857 5863 5865 5871 5875 5877 5878 5877 5876 5876 5873 5874 5875 5875 5875 5875 5876 5874 5872 5872 5870 5868 5867 5865 5863 5861 5859 5859 5858 5855 5854 5852 5849 5849 5846 5840 5836 5833 5828
5750 5765 5774 5778 5779 5781 5781 5782 5787 5790 5790 5790 5790 5791 5796 5795 5791 5798 5802 5792 5798 5821 5839 5849 5857 5861 5864 5867 5868 5869 5871 5874 5875 5874 5874 5875 5876 5877 5879 5878 5878 5875 5872 5870 5869 5867 5866 5865 5864 5862 5860 5860 5858 5855 5854 5851 5848 5848 5844 5838 5834 5831 5827
5739 5762 5769 5769 5775 5778 5774 5775 5782 5786 5785 5786 5790 5795 5798 5796 5791 5793 5792 5787 5796 5820 5839 5845 5851 5856 5857 5858 5861 5864 5867 5874 5876 5873 5874 5877 5877 5878 5880 5879 5878 5876 5873 5871 5870 5869 5868 5867 5865 5863 5862 5859 5856 5855 5853 5850 5849 5847 5843 5838 5833 5829 5827
5732 5756 5765 5769 5768 5753 5749 5767 5782 5785 5786 5788 5792 5798 5803 5806 5803 5793 5790 5797 5812 5827 5836 5838 5841 5849 5852 5853 5859 5863 5867 5872 5874 5874 5877 5878 5879 5880 5880 5880 5880 5878 5877 5876 5873 5871 5870 5868 5866 5866 5864 5860 5856 5855 5853 5850 5849 5845 5840 5837 5832 5828 5826
5724 5749 5762 5757 5740 5726 5744 5784 5801 5796 5794 5791 5788 5793 5802 5810 5812 5809 5809 5818 5827 5829 5832 5834 5837 5845 5853 5858 5863 5869 5872 5872 5871 5874 5877 5877 5878 5880 5880 5880 5880 5878 5877 5876 5874 5872 5870 5869 5868 5867 5864 5860 5857 5855 5852 5849 5845 5841 5837 5834 5831 5827 5825
5722 5742 5742 5718 5709 5732 5768 5797 5804 5802 5802 5800 5794 5794 5803 5809 5812 5814 5815 5818 5825 5829 5833 5840 5843 5848 5857 5862 5865 5871 5874 5873 5872 5873 5875 5876 5877 5877 5877 5878 5878 5877 5876 5874 5872 5871 5869 5868 5868 5864 5861 5859 5856 5853 5850 5846 5842 5838 5835 5832 5828 5825 5823
5718 5722 5714 5702 5718 5757 5780 5784 5787 5791 5793 5795 5789 5784 5794 5807 5810 5811 5812 5816 5824 5830 5834 5843 5848 5851 5855 5857 5858 5864 5868 5871 5873 5873 5874 5877 5877 5876 5877 5876 5876 5876 5876 5874 5871 5869 5867 5866 5864 5861 5859 5859 5855 5850 5847 5843 5839 5836 5832 5829 5826 5823 5820
5708 5700 5698 5713 5733 5747 5755 5760 5768 5772 5773 5779 5777 5770 5785 5810 5816 5815 5816 5818 5823 5829 5834 5842 5846 5846 5844 5840 5847 5861 5868 5868 5872 5875 5879 5882 5879 5878 5879 5878 5877 5876 5875 5873 5869 5865 5864 5863 5861 5859 5858 5857 5853 5847 5843 5840 5836 5832 5829 5826 5823 5820 5816
5706 5693 5686 5702 5716 5720 5730 5743 5756 5764 5766 5774 5775 5764 5773 5804 5819 5819 5819 5819 5821 5828 5832 5835 5837 5833 5823 5820 5840 5864 5871 5868 5870 5872 5876 5882 5882 5880 5879 5877 5875 5874 5874 5873 5867 5862 5860 5859 5859 5859 5856 5853 5848 5842 5838 5836 5831 5827 5824 5821 5819 5816 5812
5705 5692 5678 5689 5705 5715 5727 5740 5752 5760 5763 5772 5771 5752 5758 5796 5820 5823 5824 5822 5821 5827 5830 5829 5826 5817 5808 5816 5844 5868 5870 5869 5870 5869 5870 5877 5880 5878 5878 5875 5871 5870 5872 5871 5864 5859 5856 5853 5854 5855 5852 5849 5844 5837 5833 5830 5825 5823 5820 5818 5816 5812 5808
5702 5696 5687 5697 5713 5721 5729 5740 5750 5757 5764 5766 5749 5731 5749 5789 5808 5814 5823 5825 5825 5830 5830 5824 5819 5813 5813 5827 5849 5864 5866 5865 5868 5866 5867 5870 5872 5873 5874 5873 5869 5867 5867 5865 5859 5854 5851 5849 5851 5852 5848 5845 5838 5831 5828 5825 5821 5819 5818 5815 5813 5809 5805
5702 5699 5693 5701 5715 5722 5729 5741 5750 5758 5760 5750 5732 5730 5755 5779 5786 5797 5809 5816 5824 5831 5827 5822 5821 5822 5828 5836 5845 5855 5858 5856 5857 5859 5861 5863 5865 5868 5868 5865 5862 5861 5860 5859 5855 5850 5849 5849 5849 5848 5844 5839 5831 5826 5823 5820 5818 5818 5816 5813 5810 5806 5801
5705 5705 5700 5699 5707 5719 5730 5742 5753 5755 5743 5731 5733 5749 5765 5773 5781 5792 5797 5802 5814 5821 5821 5822 5824 5825 5831 5836 5839 5844 5846 5846 5847 5850 5852 5854 5856 5858 5857 5855 5853 5854 5853 5850 5847 5845 5846 5847 5845 5843 5839 5831 5824 5821 5818 5815 5815 5815 5812 5809 5805 5800 5795
5704 5700 5694 5691 5696 5715 5733 5740 5742 5738 5730 5730 5743 5757 5766 5773 5783 5789 5791 5796 5804 5809 5812 5818 5821 5822 5827 5830 5832 5834 5836 5837 5840 5842 5843 5846 5847 5849 5849 5847 5846 5846 5844 5840 5840 5840 5841 5840 5837 5835 5829 5821 5818 5815 5811 5810 5811 5808 5806 5803 5799 5794 5789
5703 5694 5696 5701 5708 5724 5738 5736 5727 5725 5730 5740 5749 5753 5761 5772 5778 5783 5787 5791 5797 5802 5805 5807 5811 5815 5817 5819 5823 5826 5828 5830 5832 5833 5836 5839 5841 5842 5842 5840 5840 5838 5834 5831 5831 5830 5830 5829 5827 5825 5820 5814 5811 5807 5804 5805 5805 5801 5798 5796 5792 5788 5783
5709 5704 5708 5714 5719 5728 5736 5734 5728 5728 5735 5743 5749 5753 5758 5765 5771 5779 5783 5785 5791 5799 5800 5800 5804 5808 5810 5814 5818 5820 5821 5823 5825 5826 5828 5830 5831 5832 5832 5830 5830 5829 5825 5821 5819 5816 5816 5816 5815 5814 5811 5807 5802 5800 5800 5800 5797 5793 5790 5788 5785 5781 5777
5706 5704 5706 5710 5712 5718 5729 5732 5730 5729 5732 5738 5745 5749 5753 5759 5767 5775 5779 5781 5786 5790 5793 5796 5800 5804 5808 5812 5813 5814 5815 5815 5816 5818 5819 5819 5821 5821 5820 5819 5819 5820 5818 5815 5812 5808 5806 5807 5807 5806 5804 5801 5797 5795 5794 5793 5790 5787 5784 5781 5777 5774 5770
5693 5691 5695 5701 5701 5707 5719 5726 5724 5722 5724 5731 5739 5742 5746 5754 5763 5770 5775 5778 5779 5780 5783 5788 5794 5801 5806 5806 5804 5806 5808 5807 5808 5810 5808 5808 5809 5809 5809 5810 5811 5812 5811 5809 5806 5803 5800 5800 5802 5799 5798 5796 5794 5791 5790 5788 5785 5782 5778 5774 5770 5767 5763
5688 5683 5685 5692 5694 5700 5711 5714 5710 5708 5713 5722 5732 5738 5744 5750 5758 5765 5770 5771 5771 5773 5775 5780 5788 5795 5797 5796 5796 5797 5797 5797 5799 5800 5799 5800 5800 5800 5801 5802 5803 5803 5802 5799 5797 5795 5794 5794 5794 5792 5791 5790 5787 5785 5785 5783 5779 5775 5771 5767 5763 5760 5756
5683 5679 5681 5687 5688 5690 5697 5699 5693 5692 5700 5711 5720 5728 5736 5743 5750 5757 5760 5758 5758 5761 5765 5772 5779 5781 5782 5785 5787 5786 5785 5787 5789 5790 5792 5793 5792 5792 5793 5793 5793 5793 5791 5789 5788 5786 5786 5786 5786 5784 5783 5782 5781 5780 5778 5776 5773 5768 5763 5760 5758 5754 5750
5675 5675 5679 5682 5679 5675 5678 5682 5679 5678 5689 5701 5708 5715 5723 5728 5734 5742 5745 5743 5742 5747 5753 5760 5764 5765 5766 5772 5775 5774 5773 5774 5778 5781 5784 5783 5783 5784 5784 5783 5782 5782 5781 5780 5779 5776 5775 5777 5776 5774 5774 5774 5774 5774 5771 5768 5765 5760 5755 5754 5753 5748 5744
5667 5673 5678 5679 5675 5668 5666 5670 5669 5671 5681 5691 5697 5704 5709 5711 5717 5725 5731 5731 5730 5732 5738 5746 5751 5753 5754 5759 5762 5764 5763 5764 5768 5772 5774 5774 5774 5775 5776 5775 5773 5772 5771 5770 5769 5766 5765 5767 5766 5766 5766 5765 5765 5765 5762 5760 5757 5754 5750 5748 5746 5743 5741
5663 5669 5675 5676 5671 5663 5660 5662 5664 5667 5673 5680 5685 5693 5699 5702 5705 5711 5717 5720 5720 5721 5725 5732 5739 5742 5745 5748 5750 5751 5751 5754 5758 5760 5761 5764 5766 5767 5768 5767 5764 5763 5763 5762 5761 5759 5758 5758 5758 5759 5758 5757 5756 5756 5754 5752 5751 5748 5744 5741 5740 5737 5736
5661 5665 5670 5671 5666 5660 5660 5662 5662 5663 5666 5671 5674 5678 5685 5691 5694 5699 5704 5708 5711 5712 5713 5717 5724 5730 5735 5737 5738 5739 5741 5743 5746 5748 5750 5752 5754 5756 5757 5757 5755 5755 5755 5755 5755 5755 5753 5752 5752 5751 5750 5750 5749 5749 5747 5746 5744 5740 5736 5735 5735 5732 5728